FW8535 Weather Reports


time (UTC)temp
C
wind
direction
speed
KPH
gust
KPH
rain 1hr
cm
rain 24hr
cm
rain mn
cm
humidity
%
barometer
mb
20260502164034 20 13 11.3 24.1 0.00 0.00 0.00 35 1013.6
20260502163534 20 50 14.5 29.0 0.00 0.00 0.00 34 1013.5
20260502163036 20 63 11.3 29.0 0.00 0.00 0.00 34 1013.4
20260502162533 20 360 11.3 25.7 0.00 0.00 0.00 35 1013.4
20260502162032 19 13 12.9 25.7 0.00 0.00 0.00 36 1013.5
20260502161531 19 22 8.0 19.3 0.00 0.00 0.00 37 1013.5
20260502161030 19 355 9.7 20.9 0.00 0.00 0.00 36 1013.4
20260502160531 18 340 8.0 20.9 0.00 0.00 0.00 38 1013.3
20260502152026 17 101 3.2 17.7 0.00 0.00 0.00 41 1013.5
20260502151524 17 24 6.4 17.7 0.00 0.00 0.00 40 1013.4
20260502151026 16 13 6.4 17.7 0.00 0.00 0.00 41 1013.5
20260502150523 16 27 4.8 16.1 0.00 0.00 0.00 41 1013.6
20260502130558 10 227 4.8 6.4 0.00 0.00 0.00 53 1013.5
20260502123559 6 233 9.7 14.5 0.00 0.00 0.00 59 1013.2
20260502123058 5 227 8.0 11.3 0.00 0.00 0.00 60 1013.5
20260502122557 5 232 4.8 6.4 0.00 0.00 0.00 59 1013.7
20260502122056 5 232 1.6 4.8 0.00 0.00 0.00 58 1013.6
20260502121555 6 230 1.6 4.8 0.00 0.00 0.00 57 1013.8
20260502121054 6 231 1.6 3.2 0.00 0.00 0.00 57 1013.9
20260502120553 6 229 0.0 4.8 0.00 0.00 0.00 56 1013.7
20260502120104 6 210 1.6 11.3 0.00 0.00 0.00 56 1013.6
20260502115049 6 244 3.2 16.1 0.00 0.00 0.00 54 1013.7
20260502114556 7 246 11.3 16.1 0.00 0.00 0.00 53 1013.7
20260502114048 7 248 12.9 16.1 0.00 0.00 0.00 53 1013.7
20260502113547 7 254 8.0 22.5 0.00 0.00 0.00 53 1013.9
20260502113048 7 246 8.0 22.5 0.00 0.00 0.00 54 1013.6
20260502112546 7 246 16.1 19.3 0.00 0.00 0.00 54 1013.5
20260502112046 7 253 6.4 22.5 0.00 0.00 0.00 53 1014.0
20260502111550 7 227 16.1 27.4 0.00 0.00 0.00 52 1013.5
20260502111047 8 229 17.7 33.8 0.00 0.00 0.00 51 1013.4
20260502110544 8 224 22.5 33.8 0.00 0.00 0.00 51 1013.4
20260502110043 8 223 22.5 29.0 0.00 0.00 0.00 51 1013.4
20260502105041 8 208 22.5 37.0 0.00 0.00 0.00 50 1013.3
20260502104547 8 213 22.5 30.6 0.00 0.00 0.00 50 1013.4
20260502104038 8 198 19.3 30.6 0.00 0.00 0.00 50 1013.4
20260502103538 8 209 19.3 30.6 0.00 0.00 0.00 50 1013.5
20260502103038 8 217 17.7 27.4 0.00 0.00 0.00 50 1013.6
20260502102538 8 215 19.3 24.1 0.00 0.00 0.00 50 1013.6
20260502102038 8 219 17.7 22.5 0.00 0.00 0.00 50 1013.6
20260502101538 8 216 19.3 24.1 0.00 0.00 0.00 51 1013.7
20260502101038 8 211 17.7 24.1 0.00 0.00 0.00 50 1013.8
20260502100536 8 209 16.1 19.3 0.00 0.00 0.00 50 1013.7
20260502091036 8 213 14.5 24.1 0.00 0.00 0.00 50 1014.2
20260502090536 8 216 14.5 24.1 0.00 0.00 0.00 50 1014.1
20260502071022 8 206 9.7 14.5 0.00 0.00 0.00 46 1015.4
20260502070527 8 203 9.7 14.5 0.00 0.00 0.00 46 1015.4
20260502070024 8 203 8.0 12.9 0.00 0.00 0.00 46 1015.5
20260502065017 8 207 9.7 14.5 0.00 0.00 0.00 46 1015.5
20260502064516 8 209 9.7 14.5 0.00 0.00 0.00 46 1015.6
20260502064016 8 200 9.7 16.1 0.00 0.00 0.00 46 1015.6
20260502063515 8 205 9.7 16.1 0.00 0.00 0.00 46 1015.6
20260502063015 8 198 9.7 16.1 0.00 0.00 0.00 45 1015.7
20260502062515 8 200 9.7 16.1 0.00 0.00 0.00 45 1015.5
20260502062014 8 187 11.3 16.1 0.00 0.00 0.00 45 1015.7
20260502061513 8 201 11.3 16.1 0.00 0.00 0.00 45 1015.7
20260502061013 8 213 12.9 16.1 0.00 0.00 0.00 45 1015.9
20260502060512 8 217 12.9 16.1 0.00 0.00 0.00 45 1015.8
20260502060012 7 216 11.3 14.5 0.00 0.00 0.00 45 1015.8
20260502055018 8 218 12.9 16.1 0.00 0.00 0.00 44 1015.8
20260502054519 8 208 11.3 14.5 0.00 0.00 0.00 43 1016.0
20260502054017 8 204 11.3 16.1 0.00 0.00 0.00 42 1016.0
20260502053516 9 210 12.9 16.1 0.00 0.00 0.00 42 1016.0
20260502053015 8 217 12.9 16.1 0.00 0.00 0.00 42 1016.1
20260502052514 8 211 11.3 16.1 0.00 0.00 0.00 43 1016.2
20260502052015 7 209 9.7 16.1 0.00 0.00 0.00 44 1016.2
20260502051530 7 210 9.7 12.9 0.00 0.00 0.00 44 1016.2
20260502051014 6 202 9.7 12.9 0.00 0.00 0.00 46 1016.2
20260502050513 5 211 8.0 11.3 0.00 0.00 0.00 48 1016.2
20260502050013 5 213 4.8 8.0 0.00 0.00 0.00 46 1016.5
20260502045011 5 213 4.8 8.0 0.00 0.00 0.00 46 1016.5
20260502044510 5 213 4.8 8.0 0.00 0.00 0.00 47 1016.5
20260502044013 4 213 3.2 6.4 0.00 0.00 0.00 47 1016.7
20260502043509 5 213 3.2 6.4 0.00 0.00 0.00 45 1016.6
20260502043010 5 213 3.2 6.4 0.00 0.00 0.00 44 1016.7
20260502042510 5 210 3.2 6.4 0.00 0.00 0.00 44 1016.7
20260502042010 5 210 4.8 6.4 0.00 0.00 0.00 44 1016.9
20260502041508 6 208 3.2 6.4 0.00 0.00 0.00 42 1016.9
20260502041008 6 208 3.2 4.8 0.00 0.00 0.00 42 1017.0
20260502040509 6 208 3.2 6.4 0.00 0.00 0.00 42 1016.9
20260502040009 7 208 3.2 6.4 0.00 0.00 0.00 41 1016.8
20260502035007 7 208 3.2 6.4 0.00 0.00 0.00 40 1016.8
20260502034507 7 208 3.2 8.0 0.00 0.00 0.00 38 1016.9
20260502034007 8 208 4.8 8.0 0.00 0.00 0.00 40 1017.0
20260502033509 8 208 3.2 8.0 0.00 0.00 0.00 39 1016.9
20260502033005 8 204 4.8 8.0 0.00 0.00 0.00 39 1016.9
20260502032506 8 194 4.8 8.0 0.00 0.00 0.00 38 1016.8
20260502032005 8 194 4.8 8.0 0.00 0.00 0.00 37 1016.8
20260502031505 10 185 4.8 8.0 0.00 0.00 0.00 37 1016.8
20260502031005 10 224 6.4 8.0 0.00 0.00 0.00 35 1016.8
20260502030505 10 224 4.8 8.0 0.00 0.00 0.00 35 1016.8
20260502030005 10 224 4.8 8.0 0.00 0.00 0.00 35 1016.8
20260502025009 10 219 4.8 8.0 0.00 0.00 0.00 35 1016.7
20260502024509 10 218 4.8 6.4 0.00 0.00 0.00 34 1016.7
20260502024010 10 218 4.8 6.4 0.00 0.00 0.00 34 1016.8
20260502023512 11 218 4.8 6.4 0.00 0.00 0.00 34 1016.7
20260502023009 11 215 4.8 6.4 0.00 0.00 0.00 33 1016.6
20260502022510 11 215 4.8 6.4 0.00 0.00 0.00 32 1016.7
20260502022008 11 215 4.8 6.4 0.00 0.00 0.00 33 1016.7
20260502021508 11 215 3.2 6.4 0.00 0.00 0.00 32 1016.6
20260502021008 11 217 3.2 6.4 0.00 0.00 0.00 31 1016.6
20260502020507 12 218 3.2 8.0 0.00 0.00 0.00 30 1016.7
20260502020008 13 218 4.8 8.0 0.00 0.00 0.00 29 1016.7
20260502015012 14 218 6.4 8.0 0.00 0.00 0.00 28 1016.8
20260502014510 15 211 6.4 11.3 0.00 0.00 0.00 27 1016.8
20260502014009 16 209 6.4 11.3 0.00 0.00 0.00 26 1016.8
20260502013505 16 207 6.4 12.9 0.00 0.00 0.00 25 1016.7
20260502013004 17 205 8.0 12.9 0.00 0.00 0.00 24 1016.7
20260502012504 17 212 9.7 16.1 0.00 0.00 0.00 24 1016.8
20260502012006 17 211 9.7 16.1 0.00 0.00 0.00 24 1016.9
20260502011504 17 211 11.3 16.1 0.00 0.00 0.00 23 1016.9
20260502011003 18 207 11.3 24.1 0.00 0.00 0.00 23 1017.1
20260502010503 18 212 16.1 24.1 0.00 0.00 0.00 23 1017.0
20260502010004 18 227 12.9 16.1 0.00 0.00 0.00 22 1016.9
20260502005059 18 209 11.3 19.3 0.00 0.00 0.00 22 1017.0
20260502004559 18 221 12.9 19.3 0.00 0.00 0.00 22 1017.0
20260502004059 18 229 14.5 22.5 0.00 0.00 0.00 22 1017.2
20260502003601 18 224 9.7 17.7 0.00 0.00 0.00 22 1017.2
20260502003057 18 238 12.9 17.7 0.00 0.00 0.00 21 1017.3
20260502002557 18 211 12.9 17.7 0.00 0.00 0.00 21 1017.2
20260502002056 18 200 9.7 14.5 0.00 0.00 0.00 22 1017.4
20260502001558 18 223 8.0 22.5 0.00 0.00 0.00 22 1017.4
20260502001055 19 235 12.9 22.5 0.00 0.00 0.00 21 1017.5
20260502000556 19 209 9.7 19.3 0.00 0.00 0.00 21 1017.3
20260502000055 19 215 12.9 22.5 0.00 0.00 0.00 22 1017.4
20260501235655 18 232 12.9 16.1 0.00 0.00 0.00 22 1017.2
20260501235059 19 225 12.9 16.1 0.00 0.00 0.00 22 1017.3
20260501234600 19 209 6.4 16.1 0.00 0.00 0.00 22 1017.4
20260501234101 18 225 9.7 17.7 0.00 0.00 0.00 21 1017.5
20260501233602 18 225 6.4 24.1 0.00 0.00 0.00 21 1017.6
20260501233103 19 219 12.9 24.1 0.00 0.00 0.00 21 1017.6
20260501232558 19 185 11.3 24.1 0.00 0.00 0.00 21 1017.4
20260501232101 19 246 9.7 17.7 0.00 0.00 0.00 21 1017.6
20260501231605 19 196 4.8 12.9 0.00 0.00 0.00 22 1017.7
20260501231056 19 142 6.4 17.7 0.00 0.00 0.00 22 1017.4
20260501230557 19 217 12.9 17.7 0.00 0.00 0.00 22 1017.6
20260501230058 19 198 8.0 20.9 0.00 0.00 0.00 22 1017.6
20260501225656 19 242 6.4 19.3 0.00 0.00 0.00 22 1017.7
20260501225057 19 256 4.8 19.3 0.00 0.00 0.00 22 1017.7
20260501224555 19 243 9.7 19.3 0.00 0.00 0.00 22 1017.7
20260501224055 19 231 6.4 19.3 0.00 0.00 0.00 22 1017.7
20260501223554 19 238 8.0 17.7 0.00 0.00 0.00 22 1017.9
20260501223056 19 182 8.0 17.7 0.00 0.00 0.00 22 1017.8
20260501222554 18 200 4.8 17.7 0.00 0.00 0.00 23 1017.9
20260501222057 18 213 8.0 19.3 0.00 0.00 0.00 22 1017.9
20260501221553 18 238 12.9 22.5 0.00 0.00 0.00 23 1018.1
20260501221052 19 240 12.9 22.5 0.00 0.00 0.00 22 1018.2
20260501220552 19 229 6.4 16.1 0.00 0.00 0.00 22 1018.3
20260501220052 19 124 8.0 17.7 0.00 0.00 0.00 22 1018.2
20260501215654 19 230 3.2 17.7 0.00 0.00 0.00 23 1018.3
20260501215047 18 242 3.2 12.9 0.00 0.00 0.00 22 1018.4
20260501214559 18 255 6.4 16.1 0.00 0.00 0.00 22 1018.4
20260501214045 18 223 6.4 12.9 0.00 0.00 0.00 22 1018.6
20260501213544 18 221 6.4 11.3 0.00 0.00 0.00 22 1018.5
20260501213049 18 132 4.8 12.9 0.00 0.00 0.00 22 1018.6
20260501212543 18 53 4.8 20.9 0.00 0.00 0.00 22 1018.7
20260501212043 18 155 6.4 24.1 0.00 0.00 0.00 23 1018.7
20260501211543 18 201 14.5 24.1 0.00 0.00 0.00 23 1018.8
20260501211042 18 221 11.3 17.7 0.00 0.00 0.00 23 1019.0
20260501210542 18 270 4.8 11.3 0.00 0.00 0.00 23 1019.0
20260501210041 18 238 4.8 19.3 0.00 0.00 0.00 23 1018.8
20260501205641 18 198 3.2 17.7 0.00 0.00 0.00 22 1018.9
20260501205040 18 198 8.0 17.7 0.00 0.00 0.00 23 1019.0
20260501204540 18 219 11.3 17.7 0.00 0.00 0.00 23 1019.1
20260501204040 18 242 9.7 16.1 0.00 0.00 0.00 24 1019.1
20260501203537 18 123 8.0 12.9 0.00 0.00 0.00 23 1019.1
20260501203037 17 58 3.2 14.5 0.00 0.00 0.00 25 1019.2
20260501202536 17 124 4.8 20.9 0.00 0.00 0.00 24 1019.3
20260501202036 17 136 11.3 20.9 0.00 0.00 0.00 24 1019.2
20260501201542 17 159 6.4 25.7 0.00 0.00 0.00 25 1019.3
20260501201038 17 137 12.9 24.1 0.00 0.00 0.00 25 1019.4
20260501200536 17 92 11.3 24.1 0.00 0.00 0.00 25 1019.2
20260501200035 17 150 11.3 19.3 0.00 0.00 0.00 25 1019.3
20260501195039 17 112 3.2 14.5 0.00 0.00 0.00 26 1019.4
20260501194548 17 186 8.0 14.5 0.00 0.00 0.00 26 1019.4
20260501194038 17 226 4.8 17.7 0.00 0.00 0.00 26 1019.4
20260501193542 17 222 12.9 17.7 0.00 0.00 0.00 26 1019.5
20260501193037 17 251 8.0 20.9 0.00 0.00 0.00 27 1019.5
20260501192540 17 222 9.7 20.9 0.00 0.00 0.00 26 1019.6
20260501192037 17 194 11.3 20.9 0.00 0.00 0.00 25 1019.6
20260501191536 17 181 11.3 20.9 0.00 0.00 0.00 26 1019.6
20260501191035 17 141 4.8 16.1 0.00 0.00 0.00 26 1019.7
20260501190534 17 225 6.4 16.1 0.00 0.00 0.00 28 1019.7
20260501190036 17 199 6.4 16.1 0.00 0.00 0.00 26 1019.6
20260501185635 17 117 6.4 16.1 0.00 0.00 0.00 27 1019.9
20260501185037 17 220 6.4 19.3 0.00 0.00 0.00 27 1019.7
20260501184537 16 251 6.4 19.3 0.00 0.00 0.00 26 1019.9
20260501184037 17 195 9.7 24.1 0.00 0.00 0.00 26 1020.0
20260501183536 16 174 6.4 25.7 0.00 0.00 0.00 27 1019.9
20260501183036 16 124 3.2 17.7 0.00 0.00 0.00 27 1020.0
20260501182535 16 150 6.4 17.7 0.00 0.00 0.00 27 1020.1
20260501182035 16 25 8.0 19.3 0.00 0.00 0.00 27 1020.0
20260501181536 16 89 11.3 24.1 0.00 0.00 0.00 27 1019.9
20260501181034 16 109 9.7 22.5 0.00 0.00 0.00 28 1020.0
20260501180534 16 152 16.1 22.5 0.00 0.00 0.00 27 1020.0